Location: Trebic
(49.2170°N, 15.8830°E)
Time: 21:55:22
(UTC+01:00)

Transit 4A - Pass Details

Date: 02 November 2020
Orbit: 862 x 982 km, 66.8° (Epoch: 30 November)

Event Time Altitude Azimuth Distance (km) Brightness Sun altitude
Rises 18:55:48 0° 310° (NW) 3,684 11.9 -23.7°
Reaches altitude 10° 18:59:28 10° 330° (NNW) 2,743 10.8 -24.3°
Maximum altitude 19:03:28 17° 9° (N) 2,284 9.9 -24.9°
Enters shadow 19:04:57 16° 25° (NNE) 2,351 9.8 -25.2°
